Location: St. Louis
(38.6270°N, 90.1994°W)
Time: 11:17:32
(UTC-06:00)

S-56A Canister/Altair - Pass Details

Date: 08 December 2021
Orbit: 634 x 2499 km, 38.9° (Epoch: 26 January)

Event Time Altitude Azimuth Distance (km) Brightness Sun altitude
Rises 20:07:20 0° 211° (SSW) 6,135 12.4 -39.8°
Reaches altitude 10° 20:12:02 10° 203° (SSW) 5,029 11.8 -40.7°
Enters shadow 20:20:03 30° 175° (S) 3,385 10.6 -42.3°
Maximum altitude 20:24:00 35° 145° (SE) 2,957 - -43.1°
Drops below altitude 10° 20:33:11 10° 85° (E) 3,862 - -44.9°
Sets 20:36:14 0° 77° (ENE) 4,596 - -45.4°
